Home   Weather   Kryvyi Rih   Past weeks
Flag for Ukraine

Past Weather in Kryvyi Rih, Ukraine — Yesterday and Last 2 Weeks

Now
55 °F

Clear.


Feels Like: 55 °F
Forecast: 86 / 57 °F
Wind: 1 mph from Northwest

Location: Krivyy Rih / Dnipropetrovs'k

Current Time: Jul 19, 2019 at 5:21:06 am

Latest Report: Jul 19, 2019 at 4:30 am


Visibility: 10 mi

Pressure: 29.98 "Hg

Humidity: 77%

Dew Point: 48 °F

Location of Kryvyi RihLocation

Past Weather in Kryvyi Rih — Graph

°F

Kryvyi Rih Temperature Yesterday

Maximum temperature yesterday: 77 °F (at 4:00 pm)
Minimum temperature yesterday: 55 °F (at 5:30 am)
Average temperature yesterday: 67 °F

High & Low Weather Summary for the Past Weeks

 TemperatureHumidityPressure
High86 °F (Jul 7, 4:00 pm)94% (Jul 8, 4:15 am)30.07 "Hg (Jul 8, 4:15 am)
Low52 °F (Jul 5, 3:30 am)24% (Jul 4, 3:30 pm)29.62 "Hg (Jul 8, 8:30 am)
Average67 °F59%29.80 "Hg
* Reported Jul 4 4:00 am — Jul 19 4:00 am, Kryvyi Rih. Weather by CustomWeather, © 2019

Note: Actual official high and low records may vary slightly from our data, if they occured in-between our weather recording intervals... More about our weather records

Advertising

Kryvyi Rih Weather History for the Previous 24 Hours

Scroll right to see more
 ConditionsComfort  
Time TempWeatherWind HumidityBarometerVisibility
4:00 am
Fri, Jul 19
55 °FClear.1 mph82%29.95 "Hg10 mi
3:30 am55 °FClear.3 mph77%29.95 "Hg10 mi
3:00 am57 °FClear.No wind72%29.95 "Hg10 mi
2:30 am59 °FClear.No wind68%29.95 "Hg10 mi
2:00 am59 °FClear.No wind68%29.95 "Hg10 mi
1:30 am59 °FClear.No wind68%29.95 "Hg10 mi
1:00 am59 °FClear.No wind72%29.95 "Hg10 mi
12:30 am61 °FClear.3 mph68%29.95 "Hg10 mi
12:00 am61 °FClear.No wind68%29.92 "Hg10 mi
11:30 pm
Thu, Jul 18
63 °FClear.No wind64%29.92 "Hg10 mi
11:00 pm63 °FClear.No wind59%29.92 "Hg10 mi
10:30 pm64 °FClear.No wind56%29.92 "Hg10 mi
10:00 pm66 °FClear.No wind56%29.92 "Hg10 mi
9:30 pm66 °FClear.No wind56%29.92 "Hg10 mi
9:00 pm66 °FClear.No wind56%29.89 "Hg10 mi
8:30 pm68 °FSunny.3 mph53%29.89 "Hg10 mi
8:00 pm70 °FSunny.3 mph50%29.89 "Hg10 mi
7:30 pm73 °FSunny.6 mph41%29.89 "Hg10 mi
7:00 pm73 °FSunny.10 mph41%29.86 "Hg10 mi
6:30 pm75 °FPassing clouds.8 mph36%29.86 "HgN/A
6:00 pm75 °FPassing clouds.13 mph36%29.86 "HgN/A
5:30 pm75 °FPassing clouds.10 mph36%29.86 "HgN/A
5:00 pm75 °FSunny.8 mph39%29.86 "Hg10 mi
4:30 pm77 °FPassing clouds.8 mph36%29.86 "HgN/A
4:00 pm77 °FPassing clouds.10 mph36%29.86 "HgN/A
3:30 pm75 °FPassing clouds.10 mph39%29.86 "HgN/A
3:00 pm75 °FPassing clouds.10 mph36%29.86 "HgN/A
2:30 pm75 °FPassing clouds.8 mph39%29.83 "HgN/A
2:00 pm75 °FPassing clouds.10 mph39%29.86 "HgN/A
1:30 pm73 °FPassing clouds.6 mph44%29.83 "HgN/A
1:00 pm73 °FPassing clouds.6 mph44%29.83 "HgN/A
12:30 pm72 °FPassing clouds.6 mph47%29.83 "HgN/A
12:00 pm70 °FPassing clouds.8 mph50%29.83 "HgN/A
11:30 am70 °FPassing clouds.8 mph50%29.83 "HgN/A
11:00 am70 °FSunny.10 mph50%29.83 "Hg10 mi
10:30 am68 °FPassing clouds.8 mph53%29.83 "HgN/A
10:00 am66 °FPassing clouds.8 mph56%29.83 "HgN/A
9:30 am68 °FPassing clouds.8 mph53%29.83 "HgN/A
9:00 am66 °FPassing clouds.6 mph52%29.83 "HgN/A
8:30 am64 °FPassing clouds.6 mph64%29.83 "HgN/A
8:00 am63 °FPassing clouds.6 mph64%29.83 "HgN/A
7:30 am61 °FSunny.6 mph72%29.83 "Hg10 mi
7:00 am59 °FSunny.3 mph77%29.83 "Hg10 mi
6:30 am57 °FSunny.6 mph82%29.80 "Hg10 mi
6:00 am57 °FSunny.3 mph82%29.80 "Hg10 mi
5:30 am55 °FSunny.6 mph82%29.80 "Hg10 mi
5:00 am57 °FClear.No wind88%29.80 "Hg10 mi
Weather by CustomWeather, © 2019

See weather overview